sat.trackr.live / text

‹ back to catalog

STARLINK-30588

NORAD 58062 · 2023-158M

PAYLOAD ACTIVE UNKNOWN

§ Identity

Operator
Country
US
Launch date
2023-10-13
Launch site
AFETR
Launch vehicle
Mass (kg)
RCS (m²)

Purposes: comms

External: N2YO · Heavens-Above · Gunter

§ Orbital elements

Epoch: 2026-09-20T13:30:36.915264Z

Period
94.27 min
Inclination
43.0011°
Eccentricity
0.0001279
Mean motion
15.27582367 rev/d
Perigee alt
482.2 km
Apogee alt
483.9 km
Semi-major
6,861.2 km
B*
3.3264e-5
RAAN
6.4742°
Arg perigee
253.6559°
Mean anomaly
106.4152°
Rev number
16,337

§ Raw data

STARLINK-305881 58062U 23158M   26263.56292726  .00000653  00000+0  33264-4 0  99932 58062  43.0011   6.4742 0001279 253.6559 106.4152 15.27582367163374

JSON: /api/v1/satellites/58062 · /tle

For live sub-satellite position, see the globe view (requires WebGL).

§ Visibility from observer

Set your observer location to see the next 7 days of passes ≥ 10°. The values pass through the URL so the page stays shareable.

No JS? Fill the form by hand. The geolocation button needs JavaScript.